Home   Weather   Tarn Taran Sahib   Past weeks

Flag for India Past Weather in Tarn Taran Sahib, Punjab, India — Yesterday and Last 2 Weeks

Now
73 °F

Haze.


Feels Like: 77 °F
Forecast: 50 / 76 °F
Wind: No wind

Location: Amritsar Airport

Current Time: Dec 11, 2016 at 5:31:19 pm

Latest Report: Dec 11, 2016 at 5:00 pm


Visibility: 1 mi

Pressure: 29.89 "Hg

Humidity: 57%

Dew Point: 57 °F

Location of Tarn Taran SahibLocation

Past Weather in Tarn Taran Sahib — Graph

°F

Tarn Taran Sahib Temperature Yesterday

Maximum temperature yesterday: 73 °F (at 1:00 pm)
Minimum temperature yesterday: 48 °F (at 4:30 am)
Average temperature yesterday: 61 °F

High & Low Weather Summary for the Past Weeks

 TemperatureHumidityPressure
High82 °F (Nov 26, 3:30 pm)100% (Nov 28, 7:30 am)30.18 "Hg (Nov 28, 7:30 am)
Low45 °F (Nov 28, 7:30 am)17% (Nov 28, 2:30 pm)29.83 "Hg (Dec 10, 4:30 pm)
Average61 °F80%30.02 "Hg
* Reported Nov 26 3:30 pm — Dec 11 4:00 pm, Tarn Taran Sahib, Weather by CustomWeather, © 2016

Note: Actual official high and low records may vary slightly from our data, if they occured in-between our weather recording intervals... More about our weather records

Advertising

Tarn Taran Sahib Weather History for the Previous 24 Hours

Scroll right to see more
 ConditionsComfort  
Time TempWeatherWind HumidityBarometerVisibility
4:00 pm
Sun, Dec 11
73 °FHaze.3 mph57%29.89 "Hg1 mi
3:30 pm75 °FHaze.2 mph54%29.92 "Hg1 mi
3:00 pm75 °FHaze.No wind57%29.92 "Hg1 mi
2:30 pm75 °FHaze.No wind50%29.92 "Hg1 mi
1:30 pm73 °FHaze.2 mph61%29.95 "Hg1 mi
1:00 pm72 °FFog.No wind78%29.95 "Hg1 mi
12:30 pm70 °FFog.2 mph100%29.98 "Hg1 mi
12:00 pm68 °FFog.2 mph100%30.01 "Hg1 mi
11:30 am66 °FFog.2 mph100%30.01 "Hg1 mi
11:00 am64 °FFog.2 mph100%30.01 "Hg1 mi
10:30 am64 °FFog.No wind100%30.04 "Hg1 mi
10:00 am63 °FFog.No wind100%30.04 "Hg0 mi
9:30 am59 °FFog.No wind100%30.01 "Hg0 mi
9:00 am55 °FFog.2 mph100%30.01 "Hg0 mi
8:30 am54 °FFog.No wind100%29.98 "Hg0 mi
8:00 am54 °FFog.No wind100%29.98 "Hg0 mi
7:00 am54 °FFog.No wind100%29.95 "Hg0 mi
6:00 am54 °FFog.No wind100%29.92 "Hg1 mi
5:30 am55 °FFog.No wind100%29.92 "Hg1 mi
5:00 am57 °FFog.No wind100%29.92 "Hg1 mi
4:30 am57 °FFog.No wind100%29.92 "Hg1 mi
4:00 am57 °FFog.No wind100%29.95 "Hg1 mi
3:30 am57 °FFog.No wind100%29.92 "Hg1 mi
3:00 am59 °FFog.No wind100%29.95 "Hg1 mi
2:30 am59 °FFog.5 mph100%29.92 "Hg1 mi
2:00 am59 °FFog.5 mph100%29.92 "Hg1 mi
12:30 am59 °FFog.No wind100%29.95 "Hg1 mi
12:00 am59 °FFog.No wind100%29.95 "Hg1 mi
11:00 pm
Sat, Dec 10
61 °FFog.No wind100%29.95 "Hg1 mi
9:00 pm63 °FFog.No wind100%29.92 "Hg1 mi
8:30 pm64 °FFog.No wind100%29.89 "Hg1 mi
8:00 pm64 °FFog.2 mph94%29.89 "Hg1 mi
7:00 pm68 °FFog.5 mph73%29.86 "Hg1 mi
6:30 pm68 °FFog.7 mph73%29.86 "Hg1 mi
5:30 pm70 °FHaze.No wind73%29.86 "Hg1 mi
5:00 pm72 °FHaze.No wind65%29.83 "Hg1 mi
Weather by CustomWeather, © 2016

See weather overviewHow to use our weather pages